Regional Weather Roundup
Issued by NWS Sioux Falls, SD

Home | Current Version | Previous Version | Graphics & Text | Print | Product List | Glossary Off
Versions: 1 2 3 4 5 6 7 8 9 10 11 12 13 14 15 16 17 18 19 20 21 22 23 24 25 26 27 28 29 30 31 32 33 34 35 36 37 38 39 40 41 42 43 44 45 46 47 48 49 50

000
ASUS43 KFSD 020902
RWRFSD

WEATHER ROUNDUP FOR SE SOUTH DAKOTA/SW MINNESOTA/NW IOWA
NATIONAL WEATHER SERVICE SIOUX FALLS SD
300 AM CST MON MAR 02 2015

NOTE: "FAIR" INDICATES FEW OR NO CLOUDS BELOW 12,000 FEET WITH NO
SIGNIFICANT WEATHER AND OR OBSTRUCTIONS TO VISIBILITY.


SDZ038>040-050-052>070-021000-
SOUTHEAST SOUTH DAKOTA

CITY           SKY/WX    TMP DP  RH WIND       PRES   REMARKS
CHAMBERLAIN    NOT AVBL
HURON          MOCLDY     4   1  88 S3        30.44S
MADISON        FAIR       5   5 100 CALM      30.41F
MITCHELL       CLEAR     10   6  84 SW3       30.47R
SIOUX FALLS    PTCLDY     7   4  87 CALM      30.44F
WINNER         FAIR      13   3  64 SE9       30.36F WCI   1
YANKTON        MOCLDY    16  10  79 CALM      30.48S
$$

MNZ071-072-080-081-089-090-097-098-021000-
SOUTHWEST MINNESOTA

CITY           SKY/WX    TMP DP  RH WIND       PRES   REMARKS
FAIRMONT       PTCLDY     9   3  78 NW7       30.43F WCI  -3
JACKSON        PTCLDY    10   5  79 NW8       30.43F WCI  -1
LUVERNE        PTCLDY     9   5  85 CALM      30.45S
MARSHALL       CLEAR      7   0  72 W6        30.46F WCI  -3
MONTEVIDEO     PTCLDY     9   5  85 W6        30.47R WCI  -1
PIPESTONE      PTCLDY     7   5  92 CALM      30.41F
REDWOOD FALLS  PTCLDY     9   6  88 NW6       30.46S WCI  -1
TRACY          PTCLDY    12   6  77 W6        30.45S WCI   3
WINDOM         PTCLDY     7   3  85 CALM      30.44S
WORTHINGTON    CLEAR     10   0  61 NW6       30.44F WCI   1
$$

IAZ001>003-012>014-020>022-031-032-NEZ013-014-SDZ071-021000-
NORTHWEST IOWA

CITY           SKY/WX    TMP DP  RH WIND       PRES   REMARKS
DENISON        PTCLDY    10   9  92 CALM      30.46F
ESTHERVILLE    PTCLDY     6   3  87 NW8       30.44S WCI  -7
SIOUX CITY     PTCLDY    14  10  84 CALM      30.49S
SPENCER        CLEAR      6   3  87 NW5       30.45F WCI  -3
$$

ABBREVIATIONS USED IN REMARKS
   TC - TEMPERATURE IN CELSIUS
  WCI - WIND CHILL INDEX
   HX - HEAT INDEX
  VSB - VISIBILITY




USA.gov is the U.S. government's official web portal to all federal, state and local government web resources and services.